Year,Month,Day,Hour,Minute,Value (Times are PST for temperature in C)
2017,11,23,00,00,11.60
2017,11,23,00,01,11.60
2017,11,23,00,02,11.60
2017,11,23,00,03,11.50
2017,11,23,00,04,11.50
2017,11,23,00,05,11.40
2017,11,23,00,06,11.50
2017,11,23,00,07,11.50
2017,11,23,00,08,11.60
2017,11,23,00,09,11.60
2017,11,23,00,10,11.70
2017,11,23,00,11,11.80
2017,11,23,00,12,11.90
2017,11,23,00,13,12.00
2017,11,23,00,14,12.00
2017,11,23,00,15,12.10
2017,11,23,00,16,12.10
2017,11,23,00,17,12.20
2017,11,23,00,18,12.30
2017,11,23,00,19,12.40
2017,11,23,00,20,12.40
2017,11,23,00,21,12.40
2017,11,23,00,22,12.40
2017,11,23,00,23,12.40
2017,11,23,00,24,12.50
2017,11,23,00,25,12.50
2017,11,23,00,26,12.60
2017,11,23,00,27,12.60
2017,11,23,00,28,12.70
2017,11,23,00,29,12.70
2017,11,23,00,30,12.80
2017,11,23,00,31,12.80
2017,11,23,00,32,12.80
2017,11,23,00,33,12.80
2017,11,23,00,34,12.80
2017,11,23,00,35,12.80
2017,11,23,00,36,12.80
2017,11,23,00,37,12.80
2017,11,23,00,38,12.80
2017,11,23,00,39,12.90
2017,11,23,00,40,12.90
2017,11,23,00,41,12.90
2017,11,23,00,42,12.90
2017,11,23,00,43,12.90
2017,11,23,00,44,12.90
2017,11,23,00,45,12.90
2017,11,23,00,46,12.90
2017,11,23,00,47,12.90
2017,11,23,00,48,12.90
2017,11,23,00,49,12.80
2017,11,23,00,50,12.80
2017,11,23,00,51,12.80
2017,11,23,00,52,12.90
2017,11,23,00,53,12.90
2017,11,23,00,54,12.90
2017,11,23,00,55,12.90
2017,11,23,00,56,12.90
2017,11,23,00,57,12.90
2017,11,23,00,58,12.90
2017,11,23,00,59,12.90
2017,11,23,01,00,12.90
2017,11,23,01,01,12.80
2017,11,23,01,02,12.80
2017,11,23,01,03,12.70
2017,11,23,01,04,12.70
2017,11,23,01,05,12.70
2017,11,23,01,06,12.70
2017,11,23,01,07,12.70
2017,11,23,01,08,12.70
2017,11,23,01,09,12.60
2017,11,23,01,10,12.60
2017,11,23,01,11,12.60
2017,11,23,01,12,12.50
2017,11,23,01,13,12.50
2017,11,23,01,14,12.40
2017,11,23,01,15,12.40
2017,11,23,01,16,12.40
2017,11,23,01,17,12.40
2017,11,23,01,18,12.30
2017,11,23,01,19,12.30
2017,11,23,01,20,12.20
2017,11,23,01,21,12.20
2017,11,23,01,22,12.10
2017,11,23,01,23,12.00
2017,11,23,01,24,12.00
2017,11,23,01,25,11.90
2017,11,23,01,26,11.80
2017,11,23,01,27,11.80
2017,11,23,01,28,11.90
2017,11,23,01,29,11.90
2017,11,23,01,30,11.90
2017,11,23,01,31,11.90
2017,11,23,01,32,11.90
2017,11,23,01,33,12.00
2017,11,23,01,34,12.00
2017,11,23,01,35,12.00
2017,11,23,01,36,12.00
2017,11,23,01,37,11.90
2017,11,23,01,38,11.90
2017,11,23,01,39,11.90
2017,11,23,01,40,11.90
2017,11,23,01,41,11.90
2017,11,23,01,42,11.90
2017,11,23,01,43,11.90
2017,11,23,01,44,11.90
2017,11,23,01,45,11.90
2017,11,23,01,46,11.90
2017,11,23,01,47,11.90
2017,11,23,01,48,11.90
2017,11,23,01,49,11.80
2017,11,23,01,50,11.80
2017,11,23,01,51,11.80
2017,11,23,01,52,11.80
2017,11,23,01,53,11.80
2017,11,23,01,54,11.90
2017,11,23,01,55,11.90
2017,11,23,01,56,11.90
2017,11,23,01,57,12.00
2017,11,23,01,58,12.00
2017,11,23,01,59,12.10
2017,11,23,02,00,12.10
2017,11,23,02,01,12.00
2017,11,23,02,02,12.00
2017,11,23,02,03,12.00
2017,11,23,02,04,11.90
2017,11,23,02,05,11.90
2017,11,23,02,06,11.90
2017,11,23,02,07,11.90
2017,11,23,02,08,11.80
2017,11,23,02,09,11.80
2017,11,23,02,10,11.80
2017,11,23,02,11,11.70
2017,11,23,02,12,11.70
2017,11,23,02,13,11.60
2017,11,23,02,14,11.60
2017,11,23,02,15,11.60
2017,11,23,02,16,11.50
2017,11,23,02,17,11.50
2017,11,23,02,18,11.40
2017,11,23,02,19,11.40
2017,11,23,02,20,11.30
2017,11,23,02,21,11.30
2017,11,23,02,22,11.30
2017,11,23,02,23,11.30
2017,11,23,02,24,11.20
2017,11,23,02,25,11.20
2017,11,23,02,26,11.20
2017,11,23,02,27,11.10
2017,11,23,02,28,11.10
2017,11,23,02,29,11.00
2017,11,23,02,30,11.00
2017,11,23,02,31,10.90
2017,11,23,02,32,10.90
2017,11,23,02,33,10.90
2017,11,23,02,34,10.80
2017,11,23,02,35,10.80
2017,11,23,02,36,10.80
2017,11,23,02,37,10.80
2017,11,23,02,38,10.80
2017,11,23,02,39,10.80
2017,11,23,02,40,10.80
2017,11,23,02,41,10.80
2017,11,23,02,42,10.80
2017,11,23,02,43,10.80
2017,11,23,02,44,10.80
2017,11,23,02,45,10.80
2017,11,23,02,46,10.80
2017,11,23,02,47,10.80
2017,11,23,02,48,10.80
2017,11,23,02,49,10.80
2017,11,23,02,50,10.80
2017,11,23,02,51,10.80
2017,11,23,02,52,10.70
2017,11,23,02,53,10.70
2017,11,23,02,54,10.70
2017,11,23,02,55,10.60
2017,11,23,02,56,10.60
2017,11,23,02,57,10.60
2017,11,23,02,58,10.50
2017,11,23,02,59,10.50
2017,11,23,03,00,10.50
2017,11,23,03,01,10.40
2017,11,23,03,02,10.40
2017,11,23,03,03,10.40
2017,11,23,03,04,10.30
2017,11,23,03,05,10.30
2017,11,23,03,06,10.20
2017,11,23,03,07,10.20
2017,11,23,03,08,10.20
2017,11,23,03,09,10.20
2017,11,23,03,10,10.10
2017,11,23,03,11,10.10
2017,11,23,03,12,10.10
2017,11,23,03,13,10.10
2017,11,23,03,14,10.10
2017,11,23,03,15,10.10
2017,11,23,03,16,10.10
2017,11,23,03,17,10.10
2017,11,23,03,18,10.10
2017,11,23,03,19,10.10
2017,11,23,03,20,10.10
2017,11,23,03,21,10.20
2017,11,23,03,22,10.20
2017,11,23,03,23,10.20
2017,11,23,03,24,10.10
2017,11,23,03,25,10.10
2017,11,23,03,26,10.10
2017,11,23,03,27,10.10
2017,11,23,03,28,10.10
2017,11,23,03,29,10.10
2017,11,23,03,30,10.10
2017,11,23,03,31,10.10
2017,11,23,03,32,10.20
2017,11,23,03,33,10.20
2017,11,23,03,34,10.20
2017,11,23,03,35,10.20
2017,11,23,03,36,10.20
2017,11,23,03,37,10.20
2017,11,23,03,38,10.30
2017,11,23,03,39,10.30
2017,11,23,03,40,10.30
2017,11,23,03,41,10.30
2017,11,23,03,42,10.30
2017,11,23,03,43,10.30
2017,11,23,03,44,10.30
2017,11,23,03,45,10.20
2017,11,23,03,46,10.20
2017,11,23,03,47,10.20
2017,11,23,03,48,10.20
2017,11,23,03,49,10.20
2017,11,23,03,50,10.20
2017,11,23,03,51,10.20
2017,11,23,03,52,10.20
2017,11,23,03,53,10.20
2017,11,23,03,54,10.10
2017,11,23,03,55,10.10
2017,11,23,03,56,10.10
2017,11,23,03,57,10.00
2017,11,23,03,58,10.00
2017,11,23,03,59,10.00
2017,11,23,04,00,10.00
2017,11,23,04,01,10.00
2017,11,23,04,02,9.90
2017,11,23,04,03,9.90
2017,11,23,04,04,9.90
2017,11,23,04,05,9.90
2017,11,23,04,06,9.90
2017,11,23,04,07,9.80
2017,11,23,04,08,9.80
2017,11,23,04,09,9.80
2017,11,23,04,10,9.80
2017,11,23,04,11,9.80
2017,11,23,04,12,9.80
2017,11,23,04,13,9.80
2017,11,23,04,14,9.80
2017,11,23,04,15,9.70
2017,11,23,04,16,9.70
2017,11,23,04,17,9.70
2017,11,23,04,18,9.70
2017,11,23,04,19,9.70
2017,11,23,04,20,9.60
2017,11,23,04,21,9.60
2017,11,23,04,22,9.60
2017,11,23,04,23,9.60
2017,11,23,04,24,9.60
2017,11,23,04,25,9.50
2017,11,23,04,26,9.50
2017,11,23,04,27,9.50
2017,11,23,04,28,9.40
2017,11,23,04,29,9.40
2017,11,23,04,30,9.40
2017,11,23,04,31,9.40
2017,11,23,04,32,9.40
2017,11,23,04,33,9.40
2017,11,23,04,34,9.40
2017,11,23,04,35,9.40
2017,11,23,04,36,9.40
2017,11,23,04,37,9.40
2017,11,23,04,38,9.40
2017,11,23,04,39,9.40
2017,11,23,04,40,9.40
2017,11,23,04,41,9.30
2017,11,23,04,42,9.30
2017,11,23,04,43,9.40
2017,11,23,04,44,9.40
2017,11,23,04,45,9.30
2017,11,23,04,46,9.30
2017,11,23,04,47,9.30
2017,11,23,04,48,9.30
2017,11,23,04,49,9.30
2017,11,23,04,50,9.30
2017,11,23,04,51,9.30
2017,11,23,04,52,9.30
2017,11,23,04,53,9.20
2017,11,23,04,54,9.20
2017,11,23,04,55,9.20
2017,11,23,04,56,9.10
2017,11,23,04,57,9.10
2017,11,23,04,58,9.10
2017,11,23,04,59,9.10
2017,11,23,05,00,9.10
2017,11,23,05,01,9.10
2017,11,23,05,02,9.00
2017,11,23,05,03,9.00
2017,11,23,05,04,9.00
2017,11,23,05,05,9.00
2017,11,23,05,06,9.00
2017,11,23,05,07,9.00
2017,11,23,05,08,8.90
2017,11,23,05,09,8.90
2017,11,23,05,10,8.90
2017,11,23,05,11,8.90
2017,11,23,05,12,8.90
2017,11,23,05,13,8.90
2017,11,23,05,14,8.90
2017,11,23,05,15,8.80
2017,11,23,05,16,8.80
2017,11,23,05,17,8.80
2017,11,23,05,18,8.80
2017,11,23,05,19,8.80
2017,11,23,05,20,8.80
2017,11,23,05,21,8.70
2017,11,23,05,22,8.70
2017,11,23,05,23,8.70
2017,11,23,05,24,8.70
2017,11,23,05,25,8.70
2017,11,23,05,26,8.70
2017,11,23,05,27,8.70
2017,11,23,05,28,8.70
2017,11,23,05,29,8.70
2017,11,23,05,30,8.70
2017,11,23,05,31,8.70
2017,11,23,05,32,8.70
2017,11,23,05,33,8.80
2017,11,23,05,34,8.80
2017,11,23,05,35,8.80
2017,11,23,05,36,8.90
2017,11,23,05,37,8.90
2017,11,23,05,38,8.90
2017,11,23,05,39,8.90
2017,11,23,05,40,8.90
2017,11,23,05,41,8.90
2017,11,23,05,42,8.90
2017,11,23,05,43,8.90
2017,11,23,05,44,8.90
2017,11,23,05,45,8.90
2017,11,23,05,46,8.90
2017,11,23,05,47,9.00
2017,11,23,05,48,9.00
2017,11,23,05,49,9.00
2017,11,23,05,50,8.90
2017,11,23,05,51,8.90
2017,11,23,05,52,8.90
2017,11,23,05,53,8.90
2017,11,23,05,54,8.90
2017,11,23,05,55,9.00
2017,11,23,05,56,9.00
2017,11,23,05,57,9.10
2017,11,23,05,58,9.10
2017,11,23,05,59,9.20
2017,11,23,06,00,9.20
2017,11,23,06,01,9.20
2017,11,23,06,02,9.20
2017,11,23,06,03,9.10
2017,11,23,06,04,9.10
2017,11,23,06,05,9.10
2017,11,23,06,06,9.10
2017,11,23,06,07,9.00
2017,11,23,06,08,9.00
2017,11,23,06,09,9.00
2017,11,23,06,10,9.00
2017,11,23,06,11,8.90
2017,11,23,06,12,8.90
2017,11,23,06,13,8.90
2017,11,23,06,14,8.90
2017,11,23,06,15,8.90
2017,11,23,06,16,8.80
2017,11,23,06,17,8.80
2017,11,23,06,18,8.80
2017,11,23,06,19,8.70
2017,11,23,06,20,8.70
2017,11,23,06,21,8.70
2017,11,23,06,22,8.70
2017,11,23,06,23,8.60
2017,11,23,06,24,8.60
2017,11,23,06,25,8.50
2017,11,23,06,26,8.40
2017,11,23,06,27,8.40
2017,11,23,06,28,8.40
2017,11,23,06,29,8.30
2017,11,23,06,30,8.30
2017,11,23,06,31,8.30
2017,11,23,06,32,8.30
2017,11,23,06,33,8.30
2017,11,23,06,34,8.30
2017,11,23,06,35,8.30
2017,11,23,06,36,8.30
2017,11,23,06,37,8.20
2017,11,23,06,38,8.30
2017,11,23,06,39,8.30
2017,11,23,06,40,8.30
2017,11,23,06,41,8.40
2017,11,23,06,42,8.40
2017,11,23,06,43,8.40
2017,11,23,06,44,8.40
2017,11,23,06,45,8.40
2017,11,23,06,46,8.30
2017,11,23,06,47,8.30
2017,11,23,06,48,8.30
2017,11,23,06,49,8.30
2017,11,23,06,50,8.30
2017,11,23,06,51,8.30
2017,11,23,06,52,8.30
2017,11,23,06,53,8.30
2017,11,23,06,54,8.30
2017,11,23,06,55,8.30
2017,11,23,06,56,8.30
2017,11,23,06,57,8.20
2017,11,23,06,58,8.20
2017,11,23,06,59,8.20
2017,11,23,07,00,8.20
2017,11,23,07,01,8.20
2017,11,23,07,02,8.20
2017,11,23,07,03,8.20
2017,11,23,07,04,8.20
2017,11,23,07,05,8.20
2017,11,23,07,06,8.20
2017,11,23,07,07,8.20
2017,11,23,07,08,8.30
2017,11,23,07,09,8.30
2017,11,23,07,10,8.30
2017,11,23,07,11,8.30
2017,11,23,07,12,8.40
2017,11,23,07,13,8.40
2017,11,23,07,14,8.40
2017,11,23,07,15,8.50
2017,11,23,07,16,8.50
2017,11,23,07,17,8.60
2017,11,23,07,18,8.70
2017,11,23,07,19,8.70
2017,11,23,07,20,8.70
2017,11,23,07,21,8.70
2017,11,23,07,22,8.70
2017,11,23,07,23,8.70
2017,11,23,07,24,8.70
2017,11,23,07,25,8.60
2017,11,23,07,26,8.60
2017,11,23,07,27,8.70
2017,11,23,07,28,8.70
2017,11,23,07,29,8.70
2017,11,23,07,30,8.70
2017,11,23,07,31,8.80
2017,11,23,07,32,8.90
2017,11,23,07,33,8.90
2017,11,23,07,34,9.00
2017,11,23,07,35,9.00
2017,11,23,07,36,9.00
2017,11,23,07,37,9.00
2017,11,23,07,38,9.00
2017,11,23,07,39,8.90
2017,11,23,07,40,8.90
2017,11,23,07,41,8.90
2017,11,23,07,42,8.90
2017,11,23,07,43,8.90
2017,11,23,07,44,8.90
2017,11,23,07,45,8.90
2017,11,23,07,46,8.90
2017,11,23,07,47,8.90
2017,11,23,07,48,8.90
2017,11,23,07,49,8.90
2017,11,23,07,50,8.90
2017,11,23,07,51,8.90
2017,11,23,07,52,8.90
2017,11,23,07,53,8.90
2017,11,23,07,54,8.90
2017,11,23,07,55,8.90
2017,11,23,07,56,8.90
2017,11,23,07,57,9.00
2017,11,23,07,58,9.00
2017,11,23,07,59,9.00
2017,11,23,08,00,9.00
2017,11,23,08,01,9.00
2017,11,23,08,02,9.00
2017,11,23,08,03,9.00
2017,11,23,08,04,9.10
2017,11,23,08,05,9.00
2017,11,23,08,06,9.00
2017,11,23,08,07,9.00
2017,11,23,08,08,9.00
2017,11,23,08,09,9.00
2017,11,23,08,10,9.00
2017,11,23,08,11,8.90
2017,11,23,08,12,8.90
2017,11,23,08,13,8.90
2017,11,23,08,14,8.90
2017,11,23,08,15,8.90
2017,11,23,08,16,8.90
2017,11,23,08,17,8.90
2017,11,23,08,18,8.90
2017,11,23,08,19,8.90
2017,11,23,08,20,8.90
2017,11,23,08,21,9.00
2017,11,23,08,22,9.00
2017,11,23,08,23,9.10
2017,11,23,08,24,9.10
2017,11,23,08,25,9.10
2017,11,23,08,26,9.20
2017,11,23,08,27,9.20
2017,11,23,08,28,9.20
2017,11,23,08,29,9.20
2017,11,23,08,30,9.30
2017,11,23,08,31,9.30
2017,11,23,08,32,9.30
2017,11,23,08,33,9.30
2017,11,23,08,34,9.30
2017,11,23,08,35,9.30
2017,11,23,08,36,9.30
2017,11,23,08,37,9.30
2017,11,23,08,38,9.30
2017,11,23,08,39,9.30
2017,11,23,08,40,9.30
2017,11,23,08,41,9.30
2017,11,23,08,42,9.30
2017,11,23,08,43,9.30
2017,11,23,08,44,9.30
2017,11,23,08,45,9.30
2017,11,23,08,46,9.30
2017,11,23,08,47,9.40
2017,11,23,08,48,9.40
2017,11,23,08,49,9.40
2017,11,23,08,50,9.50
2017,11,23,08,51,9.60
2017,11,23,08,52,9.60
2017,11,23,08,53,9.70
2017,11,23,08,54,9.70
2017,11,23,08,55,9.70
2017,11,23,08,56,9.70
2017,11,23,08,57,9.70
2017,11,23,08,58,9.70
2017,11,23,08,59,9.70
2017,11,23,09,00,9.70
2017,11,23,09,01,9.60
2017,11,23,09,02,9.60
2017,11,23,09,03,9.60
2017,11,23,09,04,9.50
2017,11,23,09,05,9.50
2017,11,23,09,06,9.40
2017,11,23,09,07,9.40
2017,11,23,09,08,9.40
2017,11,23,09,09,9.40
2017,11,23,09,10,9.40
2017,11,23,09,11,9.30
2017,11,23,09,12,9.30
2017,11,23,09,13,9.30
2017,11,23,09,14,9.30
2017,11,23,09,15,9.30
2017,11,23,09,16,9.30
2017,11,23,09,17,9.30
2017,11,23,09,18,9.30
2017,11,23,09,19,9.30
2017,11,23,09,20,9.30
2017,11,23,09,21,9.30
2017,11,23,09,22,9.30
2017,11,23,09,23,9.40
2017,11,23,09,24,9.40
2017,11,23,09,25,9.50
2017,11,23,09,26,9.50
2017,11,23,09,27,9.50
2017,11,23,09,28,9.60
2017,11,23,09,29,9.60
2017,11,23,09,30,9.70
2017,11,23,09,31,9.70
2017,11,23,09,32,9.80
2017,11,23,09,33,9.80
2017,11,23,09,34,9.80
2017,11,23,09,35,9.80
2017,11,23,09,36,9.80
2017,11,23,09,37,9.70
2017,11,23,09,38,9.70
2017,11,23,09,39,9.70
2017,11,23,09,40,9.70
2017,11,23,09,41,9.70
2017,11,23,09,42,9.60
2017,11,23,09,43,9.60
2017,11,23,09,44,9.60
2017,11,23,09,45,9.60
2017,11,23,09,46,9.60
2017,11,23,09,47,9.50
2017,11,23,09,48,9.50
2017,11,23,09,49,9.50
2017,11,23,09,50,9.40
2017,11,23,09,51,9.40
2017,11,23,09,52,9.40
2017,11,23,09,53,9.40
2017,11,23,09,54,9.40
2017,11,23,09,55,9.40
2017,11,23,09,56,9.40
2017,11,23,09,57,9.40
2017,11,23,09,58,9.40
2017,11,23,09,59,9.40
2017,11,23,10,00,9.40
2017,11,23,10,01,9.50
2017,11,23,10,02,9.60
2017,11,23,10,03,9.60
2017,11,23,10,04,9.70
2017,11,23,10,05,9.70
2017,11,23,10,06,9.70
2017,11,23,10,07,9.80
2017,11,23,10,08,9.90
2017,11,23,10,09,9.90
2017,11,23,10,10,10.00
2017,11,23,10,11,10.00
2017,11,23,10,12,10.10
2017,11,23,10,13,10.10
2017,11,23,10,14,10.10
2017,11,23,10,15,10.20
2017,11,23,10,16,10.20
2017,11,23,10,17,10.20
2017,11,23,10,18,10.20
2017,11,23,10,19,10.30
2017,11,23,10,20,10.30
2017,11,23,10,21,10.30
2017,11,23,10,22,10.40
2017,11,23,10,23,10.40
2017,11,23,10,24,10.40
2017,11,23,10,25,10.40
2017,11,23,10,26,10.40
2017,11,23,10,27,10.40
2017,11,23,10,28,10.40
2017,11,23,10,29,10.50
2017,11,23,10,30,10.60
2017,11,23,10,31,10.70
2017,11,23,10,32,10.90
2017,11,23,10,33,11.00
2017,11,23,10,34,11.10
2017,11,23,10,35,11.10
2017,11,23,10,36,11.20
2017,11,23,10,37,11.30
2017,11,23,10,38,11.30
2017,11,23,10,39,11.40
2017,11,23,10,40,11.40
2017,11,23,10,41,11.40
2017,11,23,10,42,11.50
2017,11,23,10,43,11.50
2017,11,23,10,44,11.60
2017,11,23,10,45,11.70
2017,11,23,10,46,11.70
2017,11,23,10,47,11.80
2017,11,23,10,48,11.80
2017,11,23,10,49,11.90
2017,11,23,10,50,11.90
2017,11,23,10,51,11.90
2017,11,23,10,52,11.90
2017,11,23,10,53,11.90
2017,11,23,10,54,11.90
2017,11,23,10,55,12.00
2017,11,23,10,56,12.00
2017,11,23,10,57,12.00
2017,11,23,10,58,12.10
2017,11,23,10,59,12.10
2017,11,23,11,00,12.10
2017,11,23,11,01,12.10
2017,11,23,11,02,12.10
2017,11,23,11,03,12.20
2017,11,23,11,04,12.30
2017,11,23,11,05,12.30
2017,11,23,11,06,12.30
2017,11,23,11,07,12.40
2017,11,23,11,08,12.40
2017,11,23,11,09,12.40
2017,11,23,11,10,12.40
2017,11,23,11,11,12.40
2017,11,23,11,12,12.40
2017,11,23,11,13,12.50
2017,11,23,11,14,12.50
2017,11,23,11,15,12.50
2017,11,23,11,16,12.50
2017,11,23,11,17,12.50
2017,11,23,11,18,12.60
2017,11,23,11,19,12.60
2017,11,23,11,20,12.60
2017,11,23,11,21,12.60
2017,11,23,11,22,12.70
2017,11,23,11,23,12.70
2017,11,23,11,24,12.70
2017,11,23,11,25,12.80
2017,11,23,11,26,12.90
2017,11,23,11,27,12.90
2017,11,23,11,28,12.90
2017,11,23,11,29,12.90
2017,11,23,11,30,12.90
2017,11,23,11,31,12.80
2017,11,23,11,32,12.80
2017,11,23,11,33,12.80
2017,11,23,11,34,12.80
2017,11,23,11,35,12.80
2017,11,23,11,36,12.70
2017,11,23,11,37,12.70
2017,11,23,11,38,12.70
2017,11,23,11,39,12.70
2017,11,23,11,40,12.70
2017,11,23,11,41,12.70
2017,11,23,11,42,12.70
2017,11,23,11,43,12.80
2017,11,23,11,44,12.80
2017,11,23,11,45,12.90
2017,11,23,11,46,12.90
2017,11,23,11,47,12.90
2017,11,23,11,48,12.90
2017,11,23,11,49,12.90
2017,11,23,11,50,12.90
2017,11,23,11,51,13.00
2017,11,23,11,52,13.00
2017,11,23,11,53,13.00
2017,11,23,11,54,12.90
2017,11,23,11,55,12.90
2017,11,23,11,56,12.80
2017,11,23,11,57,12.80
2017,11,23,11,58,12.80
2017,11,23,11,59,12.80
2017,11,23,12,00,12.80
2017,11,23,12,01,12.80
2017,11,23,12,02,12.80
2017,11,23,12,03,12.70
2017,11,23,12,04,12.70
2017,11,23,12,05,12.70
2017,11,23,12,06,12.70
2017,11,23,12,07,12.70
2017,11,23,12,08,12.60
2017,11,23,12,09,12.60
2017,11,23,12,10,12.60
2017,11,23,12,11,12.60
2017,11,23,12,12,12.60
2017,11,23,12,13,12.60
2017,11,23,12,14,12.60
2017,11,23,12,15,12.60
2017,11,23,12,16,12.60
2017,11,23,12,17,12.60
2017,11,23,12,18,12.60
2017,11,23,12,19,12.60
2017,11,23,12,20,12.60
2017,11,23,12,21,12.60
2017,11,23,12,22,12.60
2017,11,23,12,23,12.60
2017,11,23,12,24,12.60
2017,11,23,12,25,12.60
2017,11,23,12,26,12.60
2017,11,23,12,27,12.70
2017,11,23,12,28,12.70
2017,11,23,12,29,12.70
2017,11,23,12,30,12.70
2017,11,23,12,31,12.70
2017,11,23,12,32,12.60
2017,11,23,12,33,12.50
2017,11,23,12,34,12.40
2017,11,23,12,35,12.30
2017,11,23,12,36,12.30
2017,11,23,12,37,12.20
2017,11,23,12,38,12.20
2017,11,23,12,39,12.10
2017,11,23,12,40,12.10
2017,11,23,12,41,12.10
2017,11,23,12,42,12.10
2017,11,23,12,43,12.10
2017,11,23,12,44,12.10
2017,11,23,12,45,12.10
2017,11,23,12,46,12.10
2017,11,23,12,47,12.10
2017,11,23,12,48,12.10
2017,11,23,12,49,12.10
2017,11,23,12,50,12.10
2017,11,23,12,51,12.10
2017,11,23,12,52,12.10
2017,11,23,12,53,12.10
2017,11,23,12,54,12.10
2017,11,23,12,55,12.00
2017,11,23,12,56,12.00
2017,11,23,12,57,11.90
2017,11,23,12,58,11.90
2017,11,23,12,59,11.90
2017,11,23,13,00,11.90
2017,11,23,13,01,11.90
2017,11,23,13,02,12.00
2017,11,23,13,03,12.00
2017,11,23,13,04,12.00
2017,11,23,13,05,12.10
2017,11,23,13,06,12.10
2017,11,23,13,07,12.10
2017,11,23,13,08,12.10
2017,11,23,13,09,12.10
2017,11,23,13,10,12.00
2017,11,23,13,11,12.00
2017,11,23,13,12,11.90
2017,11,23,13,13,11.90
2017,11,23,13,14,11.90
2017,11,23,13,15,11.90
2017,11,23,13,16,11.90
2017,11,23,13,17,11.90
2017,11,23,13,18,11.80
2017,11,23,13,19,11.80
2017,11,23,13,20,11.80
2017,11,23,13,21,11.80
2017,11,23,13,22,11.80
2017,11,23,13,23,11.80
2017,11,23,13,24,11.80
2017,11,23,13,25,11.80
2017,11,23,13,26,11.80
2017,11,23,13,27,11.80
2017,11,23,13,28,11.80
2017,11,23,13,29,11.80
2017,11,23,13,30,11.80
2017,11,23,13,31,11.80
2017,11,23,13,32,11.80
2017,11,23,13,33,11.70
2017,11,23,13,34,11.70
2017,11,23,13,35,11.70
2017,11,23,13,36,11.70
2017,11,23,13,37,11.70
2017,11,23,13,38,11.70
2017,11,23,13,39,11.70
2017,11,23,13,40,11.70
2017,11,23,13,41,11.70
2017,11,23,13,42,11.60
2017,11,23,13,43,11.60
2017,11,23,13,44,11.60
2017,11,23,13,45,11.60
2017,11,23,13,46,11.60
2017,11,23,13,47,11.60
2017,11,23,13,48,11.60
2017,11,23,13,49,11.60
2017,11,23,13,50,11.50
2017,11,23,13,51,11.50
2017,11,23,13,52,11.50
2017,11,23,13,53,11.40
2017,11,23,13,54,11.40
2017,11,23,13,55,11.40
2017,11,23,13,56,11.40
2017,11,23,13,57,11.40
2017,11,23,13,58,11.40
2017,11,23,13,59,11.50
2017,11,23,14,00,11.60
2017,11,23,14,01,11.70
2017,11,23,14,02,11.70
2017,11,23,14,03,11.80
2017,11,23,14,04,11.90
2017,11,23,14,05,12.00
2017,11,23,14,06,12.00
2017,11,23,14,07,12.10
2017,11,23,14,08,12.20
2017,11,23,14,09,12.30
2017,11,23,14,10,12.30
2017,11,23,14,11,12.40
2017,11,23,14,12,12.50
2017,11,23,14,13,12.50
2017,11,23,14,14,12.60
2017,11,23,14,15,12.60
2017,11,23,14,16,12.60
2017,11,23,14,17,12.60
2017,11,23,14,18,12.50
2017,11,23,14,19,12.40
2017,11,23,14,20,12.40
2017,11,23,14,21,12.40
2017,11,23,14,22,12.50
2017,11,23,14,23,12.50
2017,11,23,14,24,12.50
2017,11,23,14,25,12.60
2017,11,23,14,26,12.60
2017,11,23,14,27,12.70
2017,11,23,14,28,12.70
2017,11,23,14,29,12.70
2017,11,23,14,30,12.70
2017,11,23,14,31,12.70
2017,11,23,14,32,12.60
2017,11,23,14,33,12.40
2017,11,23,14,34,12.30
2017,11,23,14,35,12.20
2017,11,23,14,36,12.10
2017,11,23,14,37,12.10
2017,11,23,14,38,12.10
2017,11,23,14,39,12.10
2017,11,23,14,40,12.10
2017,11,23,14,41,12.10
2017,11,23,14,42,12.00
2017,11,23,14,43,12.00
2017,11,23,14,44,11.90
2017,11,23,14,45,11.90
2017,11,23,14,46,11.80
2017,11,23,14,47,11.80
2017,11,23,14,48,11.80
2017,11,23,14,49,11.70
2017,11,23,14,50,11.70
2017,11,23,14,51,11.70
2017,11,23,14,52,11.70
2017,11,23,14,53,11.70
2017,11,23,14,54,11.70
2017,11,23,14,55,11.60
2017,11,23,14,56,11.60
2017,11,23,14,57,11.70
2017,11,23,14,58,11.70
2017,11,23,14,59,11.70
2017,11,23,15,00,11.70
2017,11,23,15,01,11.70
2017,11,23,15,02,11.60
2017,11,23,15,03,11.60
2017,11,23,15,04,11.60
2017,11,23,15,05,11.60
2017,11,23,15,06,11.60
2017,11,23,15,07,11.60
2017,11,23,15,08,11.50
2017,11,23,15,09,11.40
2017,11,23,15,10,11.40
2017,11,23,15,11,11.30
2017,11,23,15,12,11.30
2017,11,23,15,13,11.30
2017,11,23,15,14,11.20
2017,11,23,15,15,11.20
2017,11,23,15,16,11.10
2017,11,23,15,17,11.00
2017,11,23,15,18,10.90
2017,11,23,15,19,10.90
2017,11,23,15,20,10.80
2017,11,23,15,21,10.80
2017,11,23,15,22,10.70
2017,11,23,15,23,10.70
2017,11,23,15,24,10.60
2017,11,23,15,25,10.50
2017,11,23,15,26,10.40
2017,11,23,15,27,10.40
2017,11,23,15,28,10.30
2017,11,23,15,29,10.30
2017,11,23,15,30,10.20
2017,11,23,15,31,10.10
2017,11,23,15,32,10.10
2017,11,23,15,33,10.00
2017,11,23,15,34,10.00
2017,11,23,15,35,9.90
2017,11,23,15,36,9.90
2017,11,23,15,37,9.80
2017,11,23,15,38,9.80
2017,11,23,15,39,9.80
2017,11,23,15,40,9.70
2017,11,23,15,41,9.70
2017,11,23,15,42,9.70
2017,11,23,15,43,9.60
2017,11,23,15,44,9.60
2017,11,23,15,45,9.60
2017,11,23,15,46,9.50
2017,11,23,15,47,9.50
2017,11,23,15,48,9.50
2017,11,23,15,49,9.40
2017,11,23,15,50,9.40
2017,11,23,15,51,9.40
2017,11,23,15,52,9.30
2017,11,23,15,53,9.30
2017,11,23,15,54,9.30
2017,11,23,15,55,9.30
2017,11,23,15,56,9.30
2017,11,23,15,57,9.20
2017,11,23,15,58,9.20
2017,11,23,15,59,9.20
2017,11,23,16,00,9.20
2017,11,23,16,01,9.20
2017,11,23,16,02,9.20
2017,11,23,16,03,9.20
2017,11,23,16,04,9.10
2017,11,23,16,05,9.10
2017,11,23,16,06,9.10
2017,11,23,16,07,9.10
2017,11,23,16,08,9.10
2017,11,23,16,09,9.10
2017,11,23,16,10,9.10
2017,11,23,16,11,9.10
2017,11,23,16,12,9.00
2017,11,23,16,13,9.00
2017,11,23,16,14,9.00
2017,11,23,16,15,9.00
2017,11,23,16,16,8.90
2017,11,23,16,17,8.90
2017,11,23,16,18,8.90
2017,11,23,16,19,8.90
2017,11,23,16,20,8.80
2017,11,23,16,21,8.80
2017,11,23,16,22,8.80
2017,11,23,16,23,8.80
2017,11,23,16,24,8.70
2017,11,23,16,25,8.70
2017,11,23,16,26,8.70
2017,11,23,16,27,8.60
2017,11,23,16,28,8.60
2017,11,23,16,29,8.60
2017,11,23,16,30,8.50
2017,11,23,16,31,8.50
2017,11,23,16,32,8.40
2017,11,23,16,33,8.40
2017,11,23,16,34,8.40
2017,11,23,16,35,8.30
2017,11,23,16,36,8.30
2017,11,23,16,37,8.30
2017,11,23,16,38,8.30
2017,11,23,16,39,8.30
2017,11,23,16,40,8.30
2017,11,23,16,41,8.20
2017,11,23,16,42,8.20
2017,11,23,16,43,8.20
2017,11,23,16,44,8.10
2017,11,23,16,45,8.10
2017,11,23,16,46,8.10
2017,11,23,16,47,8.10
2017,11,23,16,48,8.00
2017,11,23,16,49,8.00
2017,11,23,16,50,8.00
2017,11,23,16,51,8.00
2017,11,23,16,52,7.90
2017,11,23,16,53,7.90
2017,11,23,16,54,7.90
2017,11,23,16,55,7.90
2017,11,23,16,56,7.90
2017,11,23,16,57,8.00
2017,11,23,16,58,8.10
2017,11,23,16,59,8.10
2017,11,23,17,00,8.10
2017,11,23,17,01,8.10
2017,11,23,17,02,8.20
2017,11,23,17,03,8.20
2017,11,23,17,04,8.20
2017,11,23,17,05,8.20
2017,11,23,17,06,8.20
2017,11,23,17,07,8.20
2017,11,23,17,08,8.20
2017,11,23,17,09,8.20
2017,11,23,17,10,8.20
2017,11,23,17,11,8.20
2017,11,23,17,12,8.20
2017,11,23,17,13,8.20
2017,11,23,17,14,8.20
2017,11,23,17,15,8.20
2017,11,23,17,16,8.10
2017,11,23,17,17,8.10
2017,11,23,17,18,8.10
2017,11,23,17,19,8.10
2017,11,23,17,20,8.10
2017,11,23,17,21,8.10
2017,11,23,17,22,8.00
2017,11,23,17,23,8.00
2017,11,23,17,24,7.90
2017,11,23,17,25,7.90
2017,11,23,17,26,7.90
2017,11,23,17,27,7.90
2017,11,23,17,28,7.80
2017,11,23,17,29,7.80
2017,11,23,17,30,7.80
2017,11,23,17,31,7.80
2017,11,23,17,32,7.80
2017,11,23,17,33,7.70
2017,11,23,17,34,7.70
2017,11,23,17,35,7.70
2017,11,23,17,36,7.60
2017,11,23,17,37,7.60
2017,11,23,17,38,7.60
2017,11,23,17,39,7.50
2017,11,23,17,40,7.40